Regional Weather Roundup
Issued by NWS

Home | Current Version | Previous Version | Text Only | Print | Product List | Glossary Off
Versions: 1 2 3 4 5 6 7 8 9 10 11 12 13 14 15 16 17 18 19 20 21 22 23 24 25 26 27 28 29 30 31 32 33 34 35 36 37 38 39 40 41 42 43 44 45 46 47 48 49 50

186
ASUS44 KLIX 170005
RWRLA
LOUISIANA WEATHER ROUNDUP
NATIONAL WEATHER SERVICE NEW ORLEANS LA
700 PM CDT WED APR 16 2014

NOTE: "FAIR" INDICATES FEW OR NO CLOUDS BELOW 12,000 FEET WITH NO
      SIGNIFICANT WEATHER AND/OR OBSTRUCTIONS TO VISIBILITY.
      SKY/WX - SKY CONDITION AND SIGNIFICANT WEATHER.
      TMP - AIR TEMPERATURE.    DP   - DEWPOINT TEMPERATURE.
      RH  - RELATIVE HUMIDITY.  PRES - PRESSURE.
      HX  - HEAT INDEX.         WCI  - WIND CHILL INDEX.

*  THESE STATIONS ARE NOT NWS OR FAA STATIONS AND ARE NOT UNDER
   NWS QUALITY CONTROL.

LAZ040-048-061>063-065-066-069-170100-
SOUTHEAST LOUISIANA

CITY           SKY/WX    TMP DP  RH WIND       PRES   REMARKS
N.O. AUDUBON     N/A     61  41  48 MISG        N/A
6HR MIN TEMP:  61; 6HR MAX TEMP:  65;

N.O. INTL ARPT PTCLDY    60  36  40 E6        30.11F
6HR MIN TEMP:  59; 6HR MAX TEMP:  63;

N.O. LAKEFRONT PTCLDY    58  37  45 E12       30.12F
6HR MIN TEMP:  58; 6HR MAX TEMP:  61;

N.O. DOWNTOWN* FAIR      61  39  44 SE3       30.12F
6HR MIN TEMP:  59; 6HR MAX TEMP:  63;

SLIDELL        CLEAR     57  40  52 SE8       30.12F
6HR MIN TEMP:  57; 6HR MAX TEMP:  63;

BATON ROUGE    MOCLDY    61  42  49 E6        30.10S
6HR MIN TEMP:  61; 6HR MAX TEMP:  67; 6HR PCP: TRACE;

BOOTHVILLE     MOCLDY    57  45  64 E8        30.14S
6HR MIN TEMP:  57; 6HR MAX TEMP:  61;

BELLE CHASSE   PTCLDY    58  44  60 E9        30.12F
6HR MIN TEMP:  58; 6HR MAX TEMP:  63;

BOGALUSA*        N/A     63  35  35 CALM      30.12S
6HR MIN TEMP:  60; 6HR MAX TEMP:  68;

GALLIANO*      PTCLDY    58  46  63 E6        30.12R
6HR MIN TEMP:  58; 6HR MAX TEMP:  64;

NEW ROADS*     FAIR      61  39  43 SE5       30.10S
6HR MIN TEMP:  57; 6HR MAX TEMP:  65;

GONZALES*      FAIR      61  45  56 E3        30.10S
6HR MIN TEMP:  60; 6HR MAX TEMP:  66;

HAMMOND*       MOCLDY    59  41  51 S5        30.13S
HOUMA*         PTCLDY    61  45  55 E8        30.11F
PORT FOURCHON* CLOUDY    59  46  63 E9G15     30.13S

$$

LAZ041-044-053-054-170100-
SOUTHWEST LOUISIANA

CITY           SKY/WX    TMP DP  RH WIND       PRES   REMARKS
LAKE CHARLES   PTCLDY    61  46  57 S9        30.07S
6HR MIN TEMP:  59; 6HR MAX TEMP:  65;

LAFAYETTE      MOCLDY    62  46  55 CALM      30.09S
6HR MIN TEMP:  60; 6HR MAX TEMP:  65;

PATTERSON      PTCLDY    63  46  55 S6        30.12S
6HR MIN TEMP:  63; 6HR MAX TEMP:  66;

SALT POINT       N/A     64  50  60 VRB5      30.09S
6HR MIN TEMP:  63; 6HR MAX TEMP:  67;

NEW IBERIA     PTCLDY    62  45  53 SW7       30.10S
6HR MIN TEMP:  61; 6HR MAX TEMP:  67;

CHENAULT AIRPK CLEAR     63  45  51 SE10      30.08S

$$

LAZ027-028-170100-
CENTRAL LOUISIANA

CITY           SKY/WX    TMP DP  RH WIND       PRES   REMARKS
FORT POLK      PTCLDY    61  38  42 SE12      30.06S
6HR MIN TEMP:  58; 6HR MAX TEMP:  64;

ALEXANDRIA INT MOCLDY    60  41  49 SE9       30.06F
6HR MIN TEMP:  58; 6HR MAX TEMP:  64;

ALEXANDRIA     PTCLDY    62  41  46 CALM      30.08F
6HR MIN TEMP:  61; 6HR MAX TEMP:  67;


$$

LAZ001-002-170100-
NORTHWEST LOUISIANA

CITY           SKY/WX    TMP DP  RH WIND       PRES   REMARKS
SHREVEPORT     MOCLDY    61  38  42 SE6       30.04S
6HR MIN TEMP:  60; 6HR MAX TEMP:  66;

BARKSDALE AFB  PTCLDY    62  35  36 SE9       30.05S
6HR MIN TEMP:  58; 6HR MAX TEMP:  64;

DTN SHREVEPORT PTCLDY    60  36  40 SE10      30.05R
6HR MIN TEMP:  57; 6HR MAX TEMP:  63;


$$

LAZ014-016-170100-
NORTHEAST LOUISIANA

CITY           SKY/WX    TMP DP  RH WIND       PRES   REMARKS
MONROE         MOCLDY    59  36  42 SE5       30.10F
6HR MIN TEMP:  56; 6HR MAX TEMP:  62;

TALLULAH       PTCLDY    63  35  35 CALM      30.11F
6HR MIN TEMP:  54; 6HR MAX TEMP:  65;


$$




USA.gov is the U.S. government's official web portal to all federal, state and local government web resources and services.